| Date | Time | Temp. (oF) | Dew Point (oF) | Rel. Hum. (%) | Press. (in.) | Wind Dir. | Wind Speed (mph) | Hourly Rainfall (in.) |
|
|---|---|---|---|---|---|---|---|---|---|
| 1 | 01/28 | 00:00 | 33 | 20 | 60 | 29.73 | NW | 5 | 0.00 |
| 2 | 01/27 | 23:00 | 34 | 20 | 58 | 29.74 | NW | 10 | 0.00 |
| 3 | 01/27 | 22:00 | 33 | 20 | 61 | 29.74 | NW | 4 | 0.00 |
| 4 | 01/27 | 21:00 | 33 | 21 | 62 | 29.73 | NW | 5 | 0.00 |
| 5 | 01/27 | 20:00 | 33 | 22 | 65 | 29.73 | NW | 4 | 0.00 |
| 6 | 01/27 | 19:00 | 34 | 22 | 62 | 29.72 | NW | 7 | 0.00 |
| 7 | 01/27 | 18:00 | 34 | 24 | 68 | 29.72 | W | 11 | 0.00 |
| 8 | 01/27 | 17:00 | 35 | 24 | 64 | 29.71 | NW | 8 | 0.00 |
| 9 | 01/27 | 16:00 | 36 | 24 | 64 | 29.68 | NW | 7 | 0.00 |
| 10 | 01/27 | 15:00 | 37 | 24 | 60 | 29.68 | NW | 11 | 0.00 |
| 11 | 01/27 | 14:00 | 37 | 24 | 61 | 29.68 | NW | 7 | 0.00 |
| 12 | 01/27 | 13:00 | 40 | 24 | 54 | 29.68 | SE | 14 | 0.00 |
| 13 | 01/27 | 12:00 | 40 | 25 | 55 | 29.72 | NW | 12 | 0.00 |
| 14 | 01/27 | 11:00 | 38 | 24 | 57 | 29.75 | WNW | 7 | 0.00 |
| 15 | 01/27 | 10:00 | 38 | 24 | 59 | 29.76 | SE | 16 | 0.00 |
| 16 | 01/27 | 09:00 | 37 | 22 | 55 | 29.76 | WNW | 12 | 0.00 |
| 17 | 01/27 | 08:00 | 36 | 22 | 57 | 29.76 | NW | 8 | 0.00 |
| 18 | 01/27 | 07:00 | 37 | 22 | 55 | 29.76 | NW | 9 | 0.00 |
| 19 | 01/27 | 06:00 | 37 | 23 | 57 | 29.74 | NW | 4 | 0.00 |
| 20 | 01/27 | 05:00 | 38 | 23 | 55 | 29.73 | NW | 14 | 0.00 |
| 21 | 01/27 | 04:00 | 39 | 25 | 59 | 29.71 | WNW | 7 | 0.00 |
| 22 | 01/27 | 03:00 | 39 | 26 | 60 | 29.72 | NW | 3 | 0.00 |
| 23 | 01/27 | 02:00 | 40 | 26 | 59 | 29.71 | WNW | 15 | 0.00 |
| 24 | 01/27 | 01:00 | 41 | 27 | 58 | 29.69 | NW | 6 | 0.00 |